This is the latest recevied weather packets stored in our database for station/object K4DNM. If no packets are shown the sender has not sent any weather packets the latest 10 day(s).
| Time | Temp. | Humidity | Pressure | Rain* | Wind** | Luminosity | Snow |
|---|---|---|---|---|---|---|---|
| 1778274149 | 22.22° C | 40% | 1013.3 hPa | 0 mm | - | 116 W/m² | - |
| 1778273790 | 22.22° C | 40% | 1013.4 hPa | 0 mm | - | 106 W/m² | - |
| 1778273489 | 22.22° C | 40% | 1013.5 hPa | 0 mm | - | 155 W/m² | - |
| 1778273185 | 22.78° C | 42% | 1013.6 hPa | 0 mm | - | 300 W/m² | - |
| 1778272884 | 22.22° C | 41% | 1013.6 hPa | 0 mm | - | 439 W/m² | - |
| 1778272586 | 22.22° C | 39% | 1013.8 hPa | 0 mm | - | 515 W/m² | - |
| 1778272282 | 22.22° C | 40% | 1013.7 hPa | 0 mm | - | 576 W/m² | - |
| 1778271982 | 22.22° C | 40% | 1013.6 hPa | 0 mm | - | 608 W/m² | - |
| 1778271678 | 22.78° C | 41% | 1013.6 hPa | 0 mm | - | 594 W/m² | - |
| 1778271380 | 22.78° C | 39% | 1013.7 hPa | 0 mm | - | 630 W/m² | - |
| 1778271079 | 22.78° C | 41% | 1013.6 hPa | 0 mm | - | 640 W/m² | - |
| 1778270779 | 22.78° C | 37% | 1013.8 hPa | 0 mm | - | 664 W/m² | - |
| 1778270482 | 22.78° C | 41% | 1013.8 hPa | 0 mm | - | 668 W/m² | - |
| 1778270326 | 22.22° C | 42% | 1013.9 hPa | 0 mm | - | 611 W/m² | - |
| 1778269939 | 21.67° C | 42% | 1014 hPa | 0 mm | - | 666 W/m² | - |
| 1778269579 | 21.67° C | 42% | 1014 hPa | 0 mm | - | 637 W/m² | - |
| 1778269277 | 22.22° C | 46% | 1014 hPa | 0 mm | - | 613 W/m² | - |
| 1778269038 | 22.22° C | 43% | 1014.1 hPa | 0 mm | - | 728 W/m² | - |
| 1778268680 | 22.22° C | 44% | 1014.1 hPa | 0 mm | - | 750 W/m² | - |
| 1778268380 | 22.78° C | 40% | 1014.1 hPa | 0 mm | - | 741 W/m² | - |
| 1778268080 | 22.22° C | 40% | 1014.1 hPa | 0 mm | - | 776 W/m² | - |
| 1778267780 | 22.22° C | 41% | 1014.3 hPa | 0 mm | - | 791 W/m² | - |
| 1778267478 | 21.67° C | 45% | 1014.3 hPa | 0 mm | - | 808 W/m² | - |
| 1778267178 | 21.67° C | 41% | 1014.4 hPa | 0 mm | - | 828 W/m² | - |
| 1778266879 | 21.67° C | 40% | 1014.6 hPa | 0 mm | - | 846 W/m² | - |
* Rain latest hour (hover to see other rain measurements)
** Current wind speed in m/s (hover to see current wind gust speed)